Total_Precipitation_Accumulation
0.29 0.36 0.38 0.41 0.46 0.54 0.56 0.58 0.68 0.88 1.04 1.13 1.21 1.30 1.22 1.21 1.26 1.25 1.16 1.12 1.04 1.02 1.00 0.93 0.93 0.93 0.91 0.90 0.89 0.86 0.82 0.78 0.81 0.86 0.83 0.80 0.78 0.76 0.71 0.66 0.64 0.64 0.65
0.30 0.36 0.41 0.47 0.47 0.53 0.59 0.59 0.60 0.75 0.90 0.97 1.09 1.26 1.31 1.31 1.37 1.32 1.26 1.26 1.09 0.95 0.96 0.94 0.91 0.92 0.94 0.92 0.89 0.90 0.89 0.85 0.83 0.88 0.89 0.82 0.78 0.75 0.67 0.63 0.61 0.62 0.69
0.30 0.35 0.42 0.49 0.54 0.55 0.56 0.59 0.59 0.67 0.83 1.01 1.15 1.30 1.51 1.51 1.47 1.39 1.29 1.33 1.30 1.05 0.93 0.91 0.93 0.92 0.93 0.93 0.88 0.86 0.90 0.94 0.91 0.90 1.06 1.08 0.88 0.74 0.67 0.64 0.61 0.60 0.60
0.33 0.37 0.45 0.49 0.58 0.57 0.57 0.57 0.62 0.67 0.79 0.99 1.13 1.14 1.22 1.28 1.16 1.11 1.13 1.21 1.37 1.28 1.01 0.89 0.85 0.85 0.88 0.91 0.95 0.89 0.86 0.93 0.92 0.89 0.87 0.88 0.84 0.90 0.77 0.57 0.53 0.51 0.52
0.37 0.42 0.46 0.48 0.58 0.61 0.59 0.59 0.66 0.70 0.76 0.92 1.07 1.14 1.14 1.14 1.17 1.11 1.06 1.12 1.20 1.28 1.19 0.97 0.92 0.88 0.85 0.84 0.91 0.95 0.92 0.91 0.89 0.89 0.87 0.82 0.74 0.76 0.95 0.72 0.49 0.46 0.46
0.41 0.46 0.49 0.54 0.63 0.66 0.66 0.65 0.67 0.73 0.74 0.82 0.96 1.07 1.10 1.14 1.21 1.19 1.04 1.02 1.12 1.18 1.19 1.10 0.96 0.93 0.88 0.83 0.85 0.90 0.90 0.92 0.92 0.89 0.89 0.93 0.93 0.82 0.90 0.87 0.59 0.49 0.44
0.41 0.43 0.47 0.56 0.65 0.70 0.68 0.66 0.67 0.77 0.80 0.85 0.89 0.93 1.01 1.08 1.15 1.21 1.17 1.10 1.09 1.17 1.20 1.16 1.05 0.95 0.94 0.90 0.88 0.93 0.91 0.91 0.93 0.92 0.91 0.93 0.93 0.89 0.94 1.01 0.84 0.63 0.48
0.37 0.40 0.39 0.44 0.56 0.69 0.75 0.71 0.65 0.69 0.79 0.89 0.88 0.89 0.97 1.06 1.05 1.09 1.16 1.16 1.12 1.14 1.25 1.26 1.19 1.08 1.05 1.06 1.05 1.05 1.04 1.01 0.99 0.95 0.94 0.98 0.95 0.96 1.03 1.12 1.19 1.03 0.65
0.34 0.34 0.34 0.37 0.43 0.53 0.63 0.73 0.71 0.69 0.70 0.81 0.92 0.91 0.96 1.03 1.02 1.01 1.05 1.06 1.03 1.03 1.09 1.20 1.27 1.28 1.24 1.21 1.24 1.25 1.19 1.18 1.14 1.10 1.06 1.07 1.02 0.98 1.00 1.07 1.27 1.52 1.29
0.36 0.32 0.30 0.35 0.39 0.43 0.48 0.62 0.74 0.74 0.75 0.76 0.86 0.94 0.94 0.99 1.04 1.05 1.03 1.06 1.09 1.08 1.04 1.05 1.11 1.20 1.27 1.26 1.25 1.25 1.27 1.32 1.30 1.30 1.28 1.23 1.19 1.17 1.14 1.16 1.22 1.43 1.65
0.47 0.41 0.33 0.35 0.38 0.45 0.51 0.53 0.65 0.75 0.79 0.76 0.78 0.88 0.95 0.96 1.04 1.12 1.12 1.10 1.16 1.22 1.17 1.12 1.07 1.05 1.10 1.22 1.30 1.29 1.31 1.35 1.33 1.33 1.35 1.32 1.28 1.32 1.31 1.32 1.33 1.36 1.56
0.46 0.42 0.36 0.36 0.40 0.48 0.52 0.53 0.63 0.69 0.76 0.80 0.81 0.83 0.94 0.99 1.02 1.09 1.17 1.17 1.18 1.22 1.22 1.21 1.16 1.04 1.01 1.10 1.20 1.25 1.27 1.31 1.29 1.28 1.33 1.33 1.33 1.37 1.37 1.42 1.41 1.39 1.44
0.40 0.37 0.38 0.40 0.47 0.50 0.52 0.57 0.65 0.66 0.69 0.74 0.83 0.84 0.88 0.97 1.07 1.14 1.18 1.19 1.16 1.21 1.23 1.24 1.24 1.17 1.11 1.14 1.18 1.20 1.23 1.23 1.21 1.20 1.25 1.30 1.37 1.42 1.40 1.41 1.42 1.38 1.33
0.38 0.38 0.41 0.45 0.50 0.54 0.55 0.61 0.65 0.69 0.74 0.77 0.77 0.89 0.96 0.96 1.03 1.12 1.17 1.24 1.25 1.24 1.26 1.26 1.27 1.27 1.28 1.38 1.39 1.30 1.28 1.20 1.17 1.15 1.20 1.26 1.38 1.47 1.55 1.63 1.55 1.47 1.53
0.40 0.45 0.47 0.51 0.58 0.60 0.62 0.69 0.75 0.77 0.86 0.96 0.93 0.90 0.96 0.98 0.97 1.03 1.07 1.14 1.23 1.24 1.21 1.18 1.18 1.23 1.34 1.64 1.68 1.50 1.37 1.28 1.22 1.16 1.14 1.17 1.37 1.62 1.86 2.00 1.92 1.87 1.95
0.46 0.50 0.50 0.55 0.63 0.70 0.79 0.88 0.94 0.95 0.99 1.09 1.10 0.98 0.94 0.95 0.97 1.00 1.02 1.05 1.11 1.14 1.13 1.11 1.10 1.17 1.33 1.78 1.86 1.67 1.41 1.33 1.30 1.26 1.19 1.18 1.28 1.39 1.60 1.84 1.92 2.00 2.13
0.46 0.50 0.53 0.59 0.68 0.80 0.95 1.06 1.05 1.01 1.07 1.11 1.17 1.13 1.00 0.94 0.95 0.95 0.95 0.96 0.98 1.03 1.03 1.03 1.05 1.05 1.23 1.71 1.74 1.57 1.29 1.20 1.20 1.18 1.13 1.14 1.14 1.22 1.13 1.28 1.41 1.49 1.69
0.50 0.56 0.63 0.64 0.70 0.83 0.96 1.05 1.08 1.06 1.12 1.15 1.13 1.10 1.00 0.90 0.91 0.95 0.92 0.86 0.86 0.92 0.95 0.97 0.99 0.96 1.03 1.46 1.69 1.54 1.14 1.08 1.13 1.13 1.12 1.12 1.09 1.10 1.22 1.27 1.28 1.18 1.20
0.52 0.59 0.64 0.65 0.68 0.75 0.87 0.93 0.96 0.95 1.00 1.06 1.05 1.02 0.97 0.92 0.95 0.98 0.94 0.86 0.85 0.88 0.87 0.87 0.92 0.92 0.95 1.25 1.65 1.70 1.24 1.19 1.15 1.14 1.26 1.32 1.22 1.30 1.52 1.59 1.52 1.28 1.11
0.38 0.49 0.58 0.55 0.57 0.65 0.71 0.76 0.82 0.83 0.84 0.90 0.93 0.98 0.94 0.92 0.96 0.99 0.96 0.92 0.90 0.93 0.94 0.93 0.95 0.95 0.92 1.14 1.57 1.86 1.44 1.35 1.23 1.20 1.31 1.63 1.59 1.61 1.67 1.66 1.69 1.63 1.29
0.33 0.38 0.48 0.56 0.60 0.68 0.71 0.72 0.75 0.79 0.77 0.78 0.81 0.91 0.93 0.91 0.93 0.96 0.99 0.99 0.99 1.01 1.04 1.01 0.99 0.98 0.94 1.02 1.32 1.80 1.68 1.48 1.40 1.37 1.40 1.51 1.65 1.65 1.68 1.74 1.70 1.76 1.67
0.32 0.37 0.46 0.57 0.66 0.69 0.68 0.66 0.73 0.75 0.72 0.75 0.77 0.82 0.90 0.90 0.91 0.94 0.93 0.93 1.00 1.08 1.09 1.08 1.05 1.01 1.00 1.02 1.17 1.53 1.76 1.69 1.47 1.41 1.30 1.38 1.59 1.64 1.67 1.64 1.68 1.81 1.83
0.34 0.39 0.47 0.56 0.63 0.64 0.63 0.67 0.73 0.73 0.71 0.73 0.77 0.82 0.89 0.89 0.87 0.88 0.90 0.87 0.89 0.99 1.06 1.07 1.09 1.06 1.03 1.07 1.23 1.31 1.42 1.54 1.43 1.40 1.59 1.58 1.58 1.52 1.46 1.50 1.58 1.56 1.51
0.39 0.42 0.46 0.54 0.59 0.57 0.60 0.69 0.74 0.73 0.71 0.77 0.82 0.86 0.91 0.94 0.89 0.84 0.84 0.85 0.91 1.07 1.16 1.14 1.11 1.05 1.02 1.10 1.30 1.34 1.31 1.38 1.40 1.40 1.51 1.51 1.39 1.29 1.28 1.35 1.37 1.33 1.40
0.47 0.47 0.52 0.58 0.57 0.52 0.54 0.65 0.74 0.76 0.76 0.76 0.83 0.89 0.93 0.94 0.92 0.86 0.86 0.90 0.95 1.18 1.45 1.40 1.35 1.35 1.34 1.41 1.72 1.71 1.59 1.59 1.62 1.63 1.59 1.46 1.31 1.23 1.16 1.13 1.11 1.15 1.30
0.54 0.53 0.51 0.52 0.53 0.49 0.50 0.58 0.67 0.74 0.76 0.76 0.79 0.86 0.94 0.96 0.92 0.87 0.89 0.93 0.95 1.06 1.10 1.13 1.26 1.27 1.44 1.61 1.60 1.54 1.52 1.58 1.62 1.65 1.54 1.32 1.19 1.14 1.09 1.08 1.09 1.08 1.14